Weather History for Cape Girardeau, MO

Change the Weather History Date:

Monday, July 21, 2014

  Actual Average Record
Temperature  
Mean Temperature 73 °F 79 °F  
Max Temperature 86 °F 89 °F 102 °F (1973)
Min Temperature 60 °F 68 °F 55 °F (2007)
Degree Days  
Heating Degree Days 0 0  
Month to date heating degree days 0 0  
Since 1 June heating degree days 0 4  
Since 1 July heating degree days 0 0  
Cooling Degree Days 8 14  
Month to date cooling degree days 195 291  
Year to date cooling degree days 765 755  
Since 1 June cooling degree days 554 603  
Growing Degree Days 23 (Base 50)    
Moisture  
Dew Point 63 °F    
Average Humidity 73    
Maximum Humidity 100    
Minimum Humidity 45    
Precipitation  
Precipitation 0.00 in 0.11 in 1.43 in (1990)
Month to date precipitation 1.83 2.28  
Year to date precipitation 27.72 26.95  
Sea Level Pressure  
Sea Level Pressure 30.07 in    
Wind  
Wind Speed 2 mph (SSE)    
Max Wind Speed 8 mph    
Max Gust Speed 10 mph    
Visibility 4 miles    
Events Fog    
T = Trace of Precipitation, MM = Missing Value Source: NWS Daily Summary

Daily Weather History Graph

Daily Weather History Graph

Search for Another Location

Airport:

Trip Planner

Search our weather history database for the weather conditions in past years. The results will help you decide how hot, cold, wet, or windy it might be!

Date:

Astronomy

Jul. 21, 2014 Rise Set
Actual Time 5:54 AM CDT 8:14 PM CDT
Civil Twilight 5:24 AM CDT 8:44 PM CDT
Nautical Twilight 4:47 AM CDT 9:20 PM CDT
Astronomical Twilight 4:07 AM CDT 10:00 PM CDT
Moon 1:43 AM CDT (7/21) 3:58 PM CDT (7/21)
Length of Visible Light 15h 19m
Length of Day
14h 20m
Waning Crescent, 24% of the Moon is Illuminated
Jul 21
Waning Crescent
Jul 26
New
Aug 3
First Quarter
Aug 10
Full
Aug 17
Last Quarter

Hourly Weather History & Observations

Time (CDT) Temp. Heat Index Dew Point Humidity Pressure Visibility Wind Dir Wind Speed Gust Speed Precip Events Conditions
12:53 AM 63.0 °F - 61.0 °F 93% 30.03 in 4.0 mi Calm Calm - N/A   Clear
1:53 AM 63.0 °F - 61.0 °F 93% 30.03 in 4.0 mi Calm Calm - N/A   Clear
2:13 AM 62.1 °F - 61.0 °F 96% 30.04 in 2.5 mi Calm Calm - N/A   Clear
2:21 AM 63.0 °F - 61.0 °F 93% 30.04 in 4.0 mi Calm Calm - N/A   Clear
2:53 AM 62.1 °F - 61.0 °F 96% 30.03 in 3.0 mi Calm Calm - N/A   Clear
3:01 AM 62.1 °F - 61.0 °F 96% 30.04 in 2.5 mi Calm Calm - N/A   Clear
3:10 AM 62.1 °F - 61.0 °F 96% 30.04 in 2.5 mi Calm Calm - N/A   Scattered Clouds
3:41 AM 63.0 °F - 61.0 °F 93% 30.04 in 4.0 mi Calm Calm - N/A   Partly Cloudy
3:53 AM 63.0 °F - 61.0 °F 93% 30.04 in 2.5 mi Calm Calm - N/A   Scattered Clouds
4:22 AM 61.0 °F - 60.1 °F 97% 30.05 in 3.0 mi Calm Calm - N/A   Clear
4:42 AM 61.0 °F - 60.1 °F 97% 30.06 in 1.5 mi Calm Calm - N/A   Clear
4:53 AM 60.1 °F - 59.0 °F 96% 30.06 in 1.8 mi Calm Calm - N/A   Clear
4:56 AM 60.1 °F - 59.0 °F 96% 30.07 in 3.0 mi Calm Calm - N/A   Clear
5:03 AM 60.1 °F - 59.0 °F 96% 30.07 in 4.0 mi Calm Calm - N/A   Partly Cloudy
5:09 AM 61.0 °F - 59.0 °F 93% 30.07 in 1.2 mi Calm Calm - N/A   Scattered Clouds
5:11 AM 61.0 °F - 59.0 °F 93% 30.07 in 0.8 mi Calm Calm - N/A   Mist
5:22 AM 60.1 °F - 59.0 °F 96% 30.08 in 0.2 mi West 3.5 mph - N/A Fog Fog
5:53 AM 62.1 °F - 61.0 °F 96% 30.08 in 0.2 mi Calm Calm - N/A Fog Fog
6:32 AM 62.1 °F - 61.0 °F 96% 30.09 in 0.2 mi Calm Calm - N/A Fog Fog
6:53 AM 63.0 °F - 62.1 °F 97% 30.09 in 0.2 mi Calm Calm - N/A Fog Fog
7:01 AM 63.0 °F - 62.1 °F 97% 30.10 in 0.5 mi Calm Calm - N/A Fog Fog
7:11 AM 64.0 °F - 63.0 °F 96% 30.10 in 1.2 mi Calm Calm - N/A   Scattered Clouds
7:50 AM 66.2 °F - 64.4 °F 94% 30.11 in 2.0 mi Calm Calm - N/A   Clear
7:53 AM 66.9 °F - 64.9 °F 93% 30.10 in 2.0 mi Calm Calm - N/A   Clear
8:25 AM 68.0 °F - 66.0 °F 93% 30.11 in 0.2 mi Calm Calm - N/A Fog Fog
8:40 AM 69.1 °F - 66.9 °F 93% 30.12 in 1.2 mi Calm Calm - N/A   Mostly Cloudy
8:46 AM 70.0 °F - 66.9 °F 90% 30.12 in 2.5 mi Calm Calm - N/A   Scattered Clouds
8:53 AM 70.0 °F - 66.9 °F 90% 30.12 in 3.0 mi Calm Calm - N/A   Scattered Clouds
9:53 AM 75.9 °F - 66.9 °F 74% 30.11 in 9.0 mi Calm Calm - N/A   Clear
10:53 AM 80.1 °F 81.5 °F 63.0 °F 56% 30.12 in 10.0 mi South 4.6 mph - N/A   Clear
11:53 AM 81.0 °F 82.7 °F 64.9 °F 58% 30.11 in 10.0 mi South 6.9 mph - N/A   Clear
12:53 PM 82.9 °F 84.4 °F 64.0 °F 53% 30.10 in 10.0 mi ESE 3.5 mph - N/A   Clear
1:53 PM 84.0 °F 84.5 °F 62.1 °F 47% 30.08 in 10.0 mi WSW 4.6 mph - N/A   Mostly Cloudy
2:53 PM 84.0 °F 85.8 °F 64.9 °F 53% 30.06 in 10.0 mi SE 3.5 mph - N/A   Partly Cloudy
3:53 PM 86.0 °F 86.6 °F 62.6 °F 45% 30.06 in 10.0 mi Calm Calm - N/A   Clear
4:53 PM 84.9 °F 86.1 °F 64.0 °F 49% 30.04 in 10.0 mi Calm Calm - N/A   Clear
5:53 PM 84.0 °F 85.4 °F 64.0 °F 51% 30.04 in 10.0 mi SW 3.5 mph - N/A   Clear
6:53 PM 82.0 °F 84.5 °F 66.9 °F 60% 30.04 in 9.0 mi East 6.9 mph - N/A   Clear
7:53 PM 77.0 °F - 68.0 °F 74% 30.05 in 8.0 mi SSE 3.5 mph - N/A   Clear
8:53 PM 73.0 °F - 68.0 °F 84% 30.05 in 8.0 mi Calm Calm - N/A   Clear
9:53 PM 71.1 °F - 66.9 °F 87% 30.06 in 6.0 mi Calm Calm - N/A   Clear
10:53 PM 69.1 °F - 66.0 °F 90% 30.05 in 6.0 mi SE 3.5 mph - N/A   Clear
11:53 PM 66.9 °F - 64.9 °F 93% 30.06 in 5.0 mi Calm Calm - N/A   Clear